Weather History for Newport, VT

Change the Weather History Date:

Tuesday, November 20, 2012

  Actual Average Record
Temperature  
Mean Temperature 34 °F -  
Max Temperature 45 °F 39 °F 70 °F (1953)
Min Temperature 23 °F 24 °F 7 °F (1986)
Degree Days  
Heating Degree Days 31    
Moisture  
Dew Point 25 °F    
Average Humidity 66    
Maximum Humidity 82    
Minimum Humidity 45    
Precipitation  
Precipitation 0.00 in - - ()
Sea Level Pressure  
Sea Level Pressure 30.19 in    
Wind  
Wind Speed 3 mph (West)    
Max Wind Speed 7 mph    
Max Gust Speed -    
Visibility 10 miles    
Events      
Averages and records for this station are not official NWS values.
T = Trace of Precipitation, MM = Missing Value Source: NWS Daily Summary

Daily Weather History Graph

Daily Weather History Graph

Search for Another Location

Airport:

Trip Planner

Search our weather history database for the weather conditions in past years. The results will help you decide how hot, cold, wet, or windy it might be!

Date:

Astronomy

Nov. 20, 2012 Rise Set
Actual Time 6:53 AM EST 4:15 PM EST
Civil Twilight 6:21 AM EST 4:47 PM EST
Nautical Twilight 5:45 AM EST 5:23 PM EST
Astronomical Twilight 5:10 AM EST 5:58 PM EST
Moon 12:17 PM EST (11/20) 11:54 PM EST (11/20)
Length of Visible Light 10h 26m
Length of Day
9h 21m
Waxing Crescent, 51% of the Moon is Illuminated
Nov 20
Waxing Crescent
Nov 28
Full
Dec 6
Last Quarter
Dec 13
New
Dec 20
First Quarter

Hourly Weather History & Observations

Time (EST) Temp. Windchill Dew Point Humidity Pressure Visibility Wind Dir Wind Speed Gust Speed Precip Events Conditions
12:15 AM 27.3 °F 20.9 °F 21.4 °F 78% 30.26 in 10.0 mi SW 5.8 mph - N/A   Clear
12:35 AM 27.0 °F 20.5 °F 21.4 °F 79% 30.26 in 10.0 mi SSW 5.8 mph - N/A   Clear
12:55 AM 26.8 °F 20.2 °F 21.6 °F 81% 30.25 in 10.0 mi SW 5.8 mph - N/A   Clear
1:15 AM 26.6 °F 21.2 °F 21.2 °F 80% 30.25 in 10.0 mi SW 4.6 mph - N/A   Clear
1:35 AM 27.3 °F 22.0 °F 21.9 °F 80% 30.24 in 10.0 mi SSW 4.6 mph - N/A   Clear
1:55 AM 26.2 °F 22.1 °F 20.8 °F 80% 30.25 in 10.0 mi SSW 3.5 mph - N/A   Clear
2:15 AM 25.7 °F 19.0 °F 20.8 °F 82% 30.25 in 10.0 mi SW 5.8 mph - N/A   Clear
2:35 AM 26.2 °F 19.6 °F 21.4 °F 82% 30.25 in 10.0 mi SW 5.8 mph - N/A   Clear
3:15 AM 24.8 °F 17.9 °F 19.9 °F 82% 30.24 in 10.0 mi SSW 5.8 mph - N/A   Clear
3:35 AM 24.4 °F 18.6 °F 19.6 °F 82% 30.24 in 10.0 mi WSW 4.6 mph - N/A   Clear
7:15 AM 23.0 °F 18.4 °F 18.3 °F 82% 30.22 in 7.0 mi SW 3.5 mph - N/A   Clear
7:35 AM 23.5 °F - 18.9 °F 82% 30.22 in 7.0 mi Calm Calm - N/A   Clear
7:55 AM 24.8 °F 20.5 °F 20.1 °F 82% 30.23 in 7.0 mi SW 3.5 mph - N/A   Clear
8:15 AM 27.0 °F - 21.9 °F 81% 30.23 in 10.0 mi Calm Calm - N/A   Clear
8:35 AM 28.9 °F - 23.0 °F 78% 30.22 in 10.0 mi Calm Calm - N/A   Clear
8:55 AM 30.9 °F - 24.3 °F 76% 30.22 in 10.0 mi Calm Calm - N/A   Clear
9:15 AM 32.2 °F - 25.5 °F 76% 30.22 in 10.0 mi Calm Calm - N/A   Clear
9:35 AM 34.0 °F - 26.6 °F 74% 30.22 in 10.0 mi Calm Calm - N/A   Clear
9:55 AM 35.8 °F - 26.4 °F 69% 30.22 in 10.0 mi Calm Calm - N/A   Clear
10:15 AM 36.9 °F - 26.8 °F 67% 30.21 in 10.0 mi Calm Calm - N/A   Clear
10:35 AM 38.7 °F - 27.3 °F 64% 30.21 in 10.0 mi Calm Calm - N/A   Clear
10:55 AM 40.8 °F - 28.0 °F 60% 30.20 in 10.0 mi Calm Calm - N/A   Clear
11:15 AM 42.4 °F - 24.8 °F 50% 30.19 in 10.0 mi Calm Calm - N/A   Clear
11:35 AM 43.7 °F - 25.2 °F 48% 30.18 in 10.0 mi Calm Calm - N/A   Clear
11:55 AM 43.7 °F - 26.8 °F 51% 30.18 in 10.0 mi Calm Calm - N/A   Clear
12:15 PM 43.7 °F 41.1 °F 25.2 °F 48% 30.17 in 10.0 mi North 4.6 mph - N/A   Clear
12:35 PM 44.6 °F 42.2 °F 25.7 °F 48% 30.17 in 10.0 mi North 4.6 mph - N/A   Clear
12:55 PM 44.4 °F 42.0 °F 24.3 °F 45% 30.17 in 10.0 mi North 4.6 mph - N/A   Clear
1:15 PM 44.6 °F 40.7 °F 24.8 °F 46% 30.16 in 10.0 mi North 6.9 mph - N/A   Clear
1:35 PM 44.8 °F 41.6 °F 25.2 °F 46% 30.15 in 10.0 mi North 5.8 mph - N/A   Clear
1:55 PM 44.8 °F 41.6 °F 25.2 °F 46% 30.15 in 10.0 mi North 5.8 mph - N/A   Clear
2:15 PM 45.0 °F 41.8 °F 25.0 °F 46% 30.15 in 10.0 mi North 5.8 mph - N/A   Clear
2:35 PM 44.6 °F 42.2 °F 25.2 °F 46% 30.14 in 10.0 mi North 4.6 mph - N/A   Clear
2:55 PM 43.7 °F 42.1 °F 25.9 °F 50% 30.14 in 10.0 mi North 3.5 mph - N/A   Clear
3:15 PM 42.8 °F 41.1 °F 26.8 °F 53% 30.15 in 10.0 mi North 3.5 mph - N/A   Scattered Clouds
3:35 PM 42.6 °F 40.9 °F 28.6 °F 58% 30.15 in 10.0 mi NNW 3.5 mph - N/A   Scattered Clouds
3:55 PM 42.8 °F 41.1 °F 26.6 °F 53% 30.15 in 10.0 mi NNW 3.5 mph - N/A   Scattered Clouds
4:15 PM 43.0 °F 41.3 °F 26.4 °F 52% 30.15 in 10.0 mi NW 3.5 mph - N/A   Scattered Clouds
4:35 PM 41.0 °F - 26.2 °F 56% 30.15 in 10.0 mi Calm Calm - N/A   Mostly Cloudy
4:55 PM 41.0 °F 39.0 °F 25.3 °F 54% 30.15 in 10.0 mi NNW 3.5 mph - N/A   Mostly Cloudy
5:15 PM 40.1 °F 36.1 °F 23.9 °F 52% 30.15 in 10.0 mi North 5.8 mph - N/A   Scattered Clouds
5:35 PM 41.2 °F - 22.8 °F 48% 30.16 in 10.0 mi Calm Calm - N/A   Mostly Cloudy
5:55 PM 39.6 °F - 24.4 °F 55% 30.16 in 10.0 mi Calm Calm - N/A   Scattered Clouds
6:15 PM 37.4 °F - 24.6 °F 60% 30.17 in 10.0 mi Calm Calm - N/A   Scattered Clouds
6:35 PM 35.4 °F 32.6 °F 26.4 °F 70% 30.17 in 10.0 mi SW 3.5 mph - N/A   Mostly Cloudy
6:55 PM 37.9 °F - 25.7 °F 61% 30.17 in 10.0 mi Calm Calm - N/A   Overcast
7:15 PM 36.5 °F - 26.2 °F 66% 30.17 in 10.0 mi Calm Calm - N/A   Overcast
7:55 PM 36.5 °F - 25.7 °F 65% 30.17 in 10.0 mi Calm Calm - N/A   Mostly Cloudy
8:15 PM 36.0 °F - 25.7 °F 66% 30.17 in 10.0 mi Calm Calm - N/A   Overcast
8:35 PM 34.9 °F - 27.0 °F 73% 30.17 in 10.0 mi Calm Calm - N/A   Overcast
8:55 PM 34.7 °F - 26.2 °F 71% 30.17 in 10.0 mi Calm Calm - N/A   Mostly Cloudy
9:15 PM 34.9 °F - 26.2 °F 71% 30.18 in 10.0 mi Calm Calm - N/A   Scattered Clouds
9:35 PM 34.3 °F - 25.9 °F 71% 30.18 in 10.0 mi Calm Calm - N/A   Mostly Cloudy
9:55 PM 33.8 °F - 26.2 °F 74% 30.17 in 10.0 mi Calm Calm - N/A   Overcast
10:15 PM 34.2 °F - 26.1 °F 72% 30.17 in 10.0 mi Calm Calm - N/A   Overcast
10:35 PM 33.1 °F - 25.3 °F 73% 30.17 in 10.0 mi Calm Calm - N/A   Mostly Cloudy
10:55 PM 31.8 °F - 25.7 °F 78% 30.17 in 10.0 mi Calm Calm - N/A   Scattered Clouds
11:15 PM 33.1 °F 30.0 °F 26.2 °F 76% 30.17 in 10.0 mi SSW 3.5 mph - N/A   Mostly Cloudy
11:35 PM 32.7 °F 28.3 °F 26.6 °F 78% 30.17 in 10.0 mi SW 4.6 mph - N/A   Overcast
11:55 PM 32.9 °F 29.8 °F 26.6 °F 78% 30.17 in 10.0 mi SW 3.5 mph - N/A   Mostly Cloudy